Date,TemperatureHighF,TemperatureAvgF,TemperatureLowF,DewpointHighF,DewpointAvgF,DewpointLowF,HumidityHigh,HumidityAvg,HumidityLow,PressureMaxIn,PressureMinIn,WindSpeedMaxMPH,WindSpeedAvgMPH,GustSpeedMaxMPH,PrecipitationSumIn
2013-2-1,70.6,54.5,36.8,42.3,34.5,25.0,80,49,26,30.35,30.15,7,2,14,0.00
2013-2-2,77.4,58.6,44.8,53.0,45.7,39.7,92,65,34,30.26,30.13,8,2,14,0.00
2013-2-3,71.3,56.6,39.3,46.7,37.4,25.3,83,52,20,30.33,29.97,7,2,12,0.00
2013-2-4,74.6,61.1,53.6,57.6,53.6,46.5,92,78,51,29.97,29.75,7,3,13,0.00
2013-2-5,77.7,59.7,47.7,51.3,46.1,38.8,94,65,25,29.96,29.83,5,1,11,0.00
2013-2-6,75.6,62.6,56.6,59.0,56.2,48.3,100,81,55,29.97,29.78,5,2,10,0.04
2013-2-7,83.6,65.8,57.3,60.5,51.8,36.4,100,66,29,30.05,29.79,7,2,13,0.01
2013-2-8,68.6,54.0,44.6,45.4,34.2,22.5,74,51,20,30.22,30.04,6,1,12,0.00
2013-2-9,66.3,56.5,46.8,66.3,54.2,33.6,100,92,59,30.07,29.73,7,3,20,0.02
2013-2-10,66.9,58.4,49.6,66.8,46.8,28.6,100,70,29,29.99,29.69,8,2,21,0.21
2013-2-11,56.3,52.3,48.6,47.6,43.1,35.4,96,72,51,30.07,29.95,7,2,11,0.04
2013-2-12,67.8,55.7,45.5,58.6,45.4,25.8,100,74,28,30.05,29.78,7,2,17,0.04
2013-2-13,60.9,45.2,36.3,37.1,32.6,26.3,85,64,28,30.15,30.02,10,2,18,0.00
2013-2-14,71.3,52.3,35.3,39.7,34.7,30.3,89,57,23,30.13,29.96,5,1,11,0.00
2013-2-15,60.5,48.2,35.2,38.8,34.6,24.2,86,60,41,30.39,30.03,9,3,17,0.00
2013-2-16,65.6,46.4,31.9,32.0,26.1,21.4,70,48,22,30.47,30.19,4,1,12,0.00
2013-2-17,70.1,56.3,43.5,49.7,34.8,24.8,73,46,27,30.19,29.92,7,4,17,0.01
2013-2-18,80.7,65.2,54.2,57.9,44.6,22.9,83,54,17,30.05,29.77,10,4,19,0.00
2013-2-19,67.8,55.4,41.1,33.1,28.4,20.2,67,38,18,30.24,30.03,8,2,14,0.00
2013-2-20,64.2,55.1,50.8,64.2,46.5,28.8,100,76,38,30.09,29.60,10,4,13,0.04
2013-2-21,76.0,63.9,48.0,65.6,41.8,21.4,100,53,14,29.84,29.52,11,3,20,0.01
2013-2-22,57.2,47.5,40.8,37.3,32.2,26.3,78,57,36,30.05,29.82,6,2,19,0.00
2013-2-23,71.5,50.5,35.5,36.8,31.2,27.3,73,51,25,30.06,29.85,5,1,9,0.00
2013-2-24,73.0,56.6,38.2,57.3,44.8,33.5,92,67,40,29.89,29.53,9,3,18,0.00
2013-2-25,62.3,53.4,43.6,59.8,35.2,19.8,100,55,20,29.82,29.49,17,7,34,0.01
2013-2-26,66.9,49.3,37.0,32.5,27.9,24.4,66,46,20,29.96,29.80,10,2,19,0.00
2013-2-27,62.3,50.7,39.1,33.7,25.2,-99.9,57,39,23,30.22,29.82,11,3,19,0.00
2013-2-28,61.0,45.7,35.0,28.7,24.4,19.6,63,46,21,30.33,30.16,6,1,16,0.00